Location: Ash Swamp
(41.5170°N, 74.6157°W)
Time: 02:38:32
(UTC+00:00)

Cosmos 1408 Rocket - Pass Details

Date: 14 July 2020
Orbit: 601 x 631 km, 82.6° (Epoch: 14 August)

Event Time Altitude Azimuth Distance (km) Brightness Sun altitude
Exits shadow 03:22:09 48° 85° (E) 818 3.9 -22.6°
Drops below altitude 10° 03:26:16 10° 19° (NNE) 2,007 6.8 -22.9°
Sets 03:28:34 0° 14° (NNE) 2,922 7.8 -23.1°
